GW0207 Weather Reports


Display with metric or nautical units.
time (UTC)temp
F
wind
direction
speed
MPH
gust
MPH
rain 1hr
in
rain 24hr
in
rain mn
in
humidity
%
barometer
mb
20260902215429 96 4 0.0 1.0 0.00 0.00 0.00 51 1015.2
20260902214929 97 302 0.0 1.0 0.00 0.00 0.00 51 1015.2
20260902214429 97 248 0.0 2.0 0.00 0.00 0.00 51 1015.2
20260902213929 97 19 0.0 2.0 0.00 0.00 0.00 51 1015.1
20260902213430 97 8 0.0 2.0 0.00 0.00 0.00 50 1015.1
20260902212929 97 36 0.0 1.0 0.00 0.00 0.00 51 1015.1
20260902212429 96 25 0.0 1.0 0.00 0.00 0.00 52 1015.1
20260902211929 96 314 0.0 0.0 0.00 0.00 0.00 54 1015.1
20260902211430 96 255 0.0 0.0 0.00 0.00 0.00 55 1015.2
20260902210929 96 255 0.0 0.0 0.00 0.00 0.00 54 1015.2
20260902210428 96 255 0.0 0.0 0.00 0.00 0.00 53 1015.1
20260902205929 96 255 0.0 4.0 0.00 0.00 0.00 52 1015.1
20260902205429 96 255 0.0 4.0 0.00 0.00 0.00 51 1015.1
20260902204929 97 204 0.0 4.0 0.00 0.00 0.00 49 1015.2
20260902204429 96 289 0.0 0.0 0.00 0.00 0.00 51 1015.2
20260902203928 96 325 0.0 2.0 0.00 0.00 0.00 51 1015.2
20260902203429 97 263 1.0 4.0 0.00 0.00 0.00 49 1015.3
20260902202929 97 342 0.0 4.0 0.00 0.00 0.00 49 1015.3
20260902202658 97 86 0.0 3.0 0.00 0.00 0.00 49 1015.2
20260902201928 98 249 0.0 3.0 0.00 0.00 0.00 48 1015.3
20260902201429 98 164 0.0 2.0 0.00 0.00 0.00 48 1015.3
20260902200931 99 168 0.0 4.0 0.00 0.00 0.00 47 1015.3
20260902200431 99 72 1.0 4.0 0.00 0.00 0.00 46 1015.4
20260902195931 100 305 0.0 4.0 0.00 0.00 0.00 45 1015.5
20260902195430 99 52 1.0 3.0 0.00 0.00 0.00 47 1015.5
20260902194932 99 288 1.0 3.0 0.00 0.00 0.00 46 1015.6
20260902194659 100 359 0.0 2.0 0.00 0.00 0.00 47 1015.7
20260902193931 99 6 0.0 2.0 0.00 0.00 0.00 49 1015.7
20260902193432 98 237 1.0 2.0 0.00 0.00 0.00 50 1015.8
20260902192931 98 271 1.0 2.0 0.00 0.00 0.00 50 1015.8
20260902192430 98 100 0.0 2.0 0.00 0.00 0.00 50 1015.9
20260902191931 98 117 0.0 2.0 0.00 0.00 0.00 50 1015.9
20260902191431 98 43 0.0 2.0 0.00 0.00 0.00 49 1015.9
20260902190931 97 64 0.0 1.0 0.00 0.00 0.00 50 1015.9
20260902190431 97 226 0.0 1.0 0.00 0.00 0.00 50 1016.0
20260902185931 97 271 0.0 3.0 0.00 0.00 0.00 49 1016.0
20260902185433 97 257 0.0 3.0 0.00 0.00 0.00 50 1016.1
20260902185158 97 354 0.0 1.0 0.00 0.00 0.00 51 1016.2
20260902184432 97 355 0.0 2.0 0.00 0.00 0.00 51 1016.1
20260902183926 97 0 0.0 2.0 0.00 0.00 0.00 51 1016.3
20260902183418 98 353 0.0 2.0 0.00 0.00 0.00 49 1016.2
20260902182915 98 77 0.0 3.0 0.00 0.00 0.00 50 1016.3
20260902182638 98 101 1.0 3.0 0.00 0.00 0.00 49 1016.3
20260902182134 98 243 1.0 3.0 0.00 0.00 0.00 50 1016.3
20260902181634 97 92 1.0 3.0 0.00 0.00 0.00 49 1016.3
20260902180911 98 85 1.0 4.0 0.00 0.00 0.00 50 1016.4
20260902180631 98 223 1.0 4.0 0.00 0.00 0.00 50 1016.4
20260902175907 98 221 0.0 4.0 0.00 0.00 0.00 49 1016.4
20260902175407 98 251 0.0 2.0 0.00 0.00 0.00 50 1016.5
20260902174907 97 356 1.0 3.0 0.00 0.00 0.00 50 1016.5
20260902174405 97 259 1.0 3.0 0.00 0.00 0.00 50 1016.6
20260902174349 97 74 0.0 3.0 0.00 0.00 0.00 51 1016.5
20260902173405 96 28 0.0 2.0 0.00 0.00 0.00 51 1016.6
20260902172903 96 235 1.0 5.0 0.00 0.00 0.00 52 1016.6
20260902172403 96 150 1.0 5.0 0.00 0.00 0.00 51 1016.6
20260902172135 96 306 0.0 4.0 0.00 0.00 0.00 52 1016.6
20260902171403 95 245 1.0 4.0 0.00 0.00 0.00 53 1016.7
20260902170903 95 24 1.0 2.0 0.00 0.00 0.00 53 1016.8
20260902170403 95 246 1.0 0.0 0.00 0.00 0.00 52 1016.9
20260902170128 95 242 1.0 5.0 0.00 0.00 0.00 52 1016.9
20260902165621 95 254 0.0 3.0 0.00 0.00 0.00 53 1017.0
20260902165115 95 277 0.0 3.0 0.00 0.00 0.00 53 1017.0
20260902164608 95 358 0.0 3.0 0.00 0.00 0.00 54 1017.1
20260902164103 94 88 1.0 5.0 0.00 0.00 0.00 54 1017.1
20260902163603 94 331 1.0 5.0 0.00 0.00 0.00 53 1017.1
20260902163103 94 280 1.0 5.0 0.00 0.00 0.00 53 1017.2
20260902162603 94 354 0.0 3.0 0.00 0.00 0.00 56 1017.1
20260902162321 94 83 0.0 3.0 0.00 0.00 0.00 56 1017.2
20260902161604 94 356 0.0 3.0 0.00 0.00 0.00 56 1017.3
20260902161103 94 274 0.0 4.0 0.00 0.00 0.00 56 1017.3
20260902160603 93 248 0.0 4.0 0.00 0.00 0.00 56 1017.3
20260902160105 93 280 0.0 1.0 0.00 0.00 0.00 57 1017.3
20260902155602 93 67 1.0 6.0 0.00 0.00 0.00 59 1017.4
20260902155103 92 252 1.0 6.0 0.00 0.00 0.00 58 1017.4
20260902154603 93 231 1.0 5.0 0.00 0.00 0.00 58 1017.5
20260902154104 92 204 2.0 6.0 0.00 0.00 0.00 58 1017.5
20260902153602 92 256 1.0 6.0 0.00 0.00 0.00 57 1017.5
20260902153103 93 239 0.0 4.0 0.00 0.00 0.00 58 1017.4
20260902152827 92 286 1.0 3.0 0.00 0.00 0.00 59 1017.5
20260902152104 92 244 1.0 3.0 0.00 0.00 0.00 59 1017.5
20260902151603 92 128 1.0 6.0 0.00 0.00 0.00 60 1017.6
20260902151103 92 176 1.0 7.0 0.00 0.00 0.00 60 1017.5
20260902150603 92 280 2.0 7.0 0.00 0.00 0.00 59 1017.6
20260902150104 92 268 1.0 5.0 0.00 0.00 0.00 59 1017.5
20260902145604 92 16 1.0 5.0 0.00 0.00 0.00 60 1017.5
20260902145103 91 289 1.0 5.0 0.00 0.00 0.00 61 1017.5
20260902144603 91 249 1.0 5.0 0.00 0.00 0.00 61 1017.4
20260902144103 91 50 1.0 4.0 0.00 0.00 0.00 61 1017.4
20260902143604 91 54 1.0 5.0 0.00 0.00 0.00 63 1017.3
20260902143326 91 223 1.0 5.0 0.00 0.00 0.00 63 1017.3
20260902142822 90 250 1.0 3.0 0.00 0.00 0.00 64 1017.4
20260902142103 90 218 1.0 3.0 0.00 0.00 0.00 65 1017.3
20260902141603 90 230 0.0 3.0 0.00 0.00 0.00 66 1017.3
20260902141103 90 81 1.0 3.0 0.00 0.00 0.00 67 1017.3
20260902140828 89 296 0.0 3.0 0.00 0.00 0.00 67 1017.3
20260902140104 89 244 0.0 3.0 0.00 0.00 0.00 68 1017.2
20260902135603 89 329 0.0 3.0 0.00 0.00 0.00 68 1017.3
20260902135104 89 79 0.0 2.0 0.00 0.00 0.00 69 1017.4
20260902134603 88 144 0.0 2.0 0.00 0.00 0.00 70 1017.4
20260902134325 88 210 0.0 2.0 0.00 0.00 0.00 70 1017.4
20260902133605 87 93 0.0 2.0 0.00 0.00 0.00 72 1017.4
20260902133103 87 55 0.0 2.0 0.00 0.00 0.00 73 1017.4
20260902132604 87 98 0.0 1.0 0.00 0.00 0.00 75 1017.4
20260902132103 87 109 0.0 1.0 0.00 0.00 0.00 76 1017.4
20260902131603 86 69 0.0 1.0 0.00 0.00 0.00 79 1017.5
20260902131103 85 73 0.0 1.0 0.00 0.00 0.00 79 1017.5
20260902130603 84 82 0.0 1.0 0.00 0.00 0.00 82 1017.4
20260902130104 84 147 0.0 1.0 0.00 0.00 0.00 81 1017.5
20260902125603 83 287 0.0 0.0 0.00 0.00 0.00 84 1017.6
20260902125103 82 287 0.0 0.0 0.00 0.00 0.00 86 1017.6
20260902124603 81 288 0.0 0.0 0.00 0.00 0.00 89 1017.5
20260902124104 80 288 0.0 1.0 0.00 0.00 0.00 91 1017.5
20260902123827 79 288 0.0 1.0 0.00 0.00 0.00 92 1017.4
20260902123101 78 259 0.0 0.0 0.00 0.00 0.00 94 1017.4
20260902122601 77 225 0.0 0.0 0.00 0.00 0.00 94 1017.5
20260902122102 76 225 0.0 0.0 0.00 0.00 0.00 95 1017.5
20260902121600 76 225 0.0 1.0 0.00 0.00 0.00 96 1017.5
20260902121319 76 225 0.0 1.0 0.00 0.00 0.00 96 1017.5
20260902120601 75 225 0.0 0.0 0.00 0.00 0.00 96 1017.4
20260902120101 75 225 0.0 1.0 0.00 0.00 0.00 97 1017.4
20260902115601 75 226 0.0 1.0 0.00 0.00 0.00 97 1017.4
20260902115102 74 225 0.0 0.0 0.00 0.00 0.00 97 1017.4
20260902114601 74 226 0.0 0.0 0.00 0.00 0.00 97 1017.4
20260902114101 74 226 0.0 0.0 0.00 0.00 0.00 97 1017.3
20260902113602 74 227 0.0 0.0 0.00 0.00 0.00 97 1017.3
20260902113101 74 227 0.0 0.0 0.00 0.00 0.00 96 1017.3
20260902112602 74 227 0.0 0.0 0.00 0.00 0.00 96 1017.3
20260902112100 74 226 0.0 0.0 0.00 0.00 0.00 96 1017.3
20260902111604 74 230 0.0 0.0 0.00 0.00 0.00 96 1017.2
20260902111104 74 230 0.0 0.0 0.00 0.00 0.00 96 1017.2
20260902110605 74 231 0.0 0.0 0.00 0.00 0.00 96 1017.1
20260902105603 74 231 0.0 0.0 0.00 0.00 0.00 96 1017.1
20260902105327 74 231 0.0 0.0 0.00 0.00 0.00 96 1017.0
20260902104603 74 231 0.0 0.0 0.00 0.00 0.00 96 1017.1
20260902104542 74 231 0.0 0.0 0.00 0.00 0.00 96 1017.1
20260902103603 74 231 0.0 0.0 0.00 0.00 0.00 96 1017.1
20260902103104 74 233 0.0 0.0 0.00 0.00 0.00 96 1017.0
20260902102603 74 243 0.0 0.0 0.00 0.00 0.00 96 1017.0
20260902102103 74 243 0.0 0.0 0.00 0.00 0.00 96 1017.0
20260902101603 74 243 0.0 0.0 0.00 0.00 0.00 96 1017.1
20260902101103 74 243 0.0 0.0 0.00 0.00 0.00 96 1017.1
20260902100823 74 243 0.0 0.0 0.00 0.00 0.00 96 1017.0
20260902100320 74 243 0.0 0.0 0.00 0.00 0.00 96 1016.9
20260902095601 74 243 0.0 0.0 0.00 0.00 0.00 96 1017.0
20260902095101 74 243 0.0 0.0 0.00 0.00 0.00 95 1016.9
20260902094601 74 243 0.0 0.0 0.00 0.00 0.00 95 1016.8
20260902094101 74 243 0.0 0.0 0.00 0.00 0.00 95 1016.8
20260902093601 74 243 0.0 0.0 0.00 0.00 0.00 95 1016.8
20260902093100 74 243 0.0 0.0 0.00 0.00 0.00 95 1016.7
20260902092601 74 243 0.0 0.0 0.00 0.00 0.00 95 1016.6
20260902092100 74 243 0.0 0.0 0.00 0.00 0.00 94 1016.6
20260902091821 75 243 0.0 0.0 0.00 0.00 0.00 95 1016.6
20260902091101 75 243 0.0 0.0 0.00 0.00 0.00 94 1016.5
20260902090820 75 243 0.0 0.0 0.00 0.00 0.00 94 1016.4
20260902090101 75 243 0.0 0.0 0.00 0.00 0.00 94 1016.5
20260902085600 75 243 0.0 0.0 0.00 0.00 0.00 94 1016.4
20260902085101 75 243 0.0 0.0 0.00 0.00 0.00 94 1016.4
20260902084601 75 243 0.0 0.0 0.00 0.00 0.00 94 1016.3
20260902084101 75 243 0.0 0.0 0.00 0.00 0.00 94 1016.3
20260902083821 75 243 0.0 0.0 0.00 0.00 0.00 94 1016.3
20260902083100 75 243 0.0 0.0 0.00 0.00 0.00 94 1016.4
20260902083043 75 243 0.0 0.0 0.00 0.00 0.00 94 1016.3
20260902082325 76 243 0.0 0.0 0.00 0.00 0.00 93 1016.3
20260902081600 76 243 0.0 0.0 0.00 0.00 0.00 93 1016.3
20260902081540 76 243 0.0 0.0 0.00 0.00 0.00 93 1016.3
20260902080600 76 243 0.0 0.0 0.00 0.00 0.00 93 1016.3
20260902080333 76 244 0.0 0.0 0.00 0.00 0.00 93 1016.3
20260902075605 76 243 0.0 0.0 0.00 0.00 0.00 93 1016.3
20260902075102 76 243 0.0 0.0 0.00 0.00 0.00 93 1016.3
20260902074603 76 243 0.0 0.0 0.00 0.00 0.00 92 1016.3
20260902074103 76 243 0.0 0.0 0.00 0.00 0.00 92 1016.4
20260902073604 76 243 0.0 0.0 0.00 0.00 0.00 92 1016.5
20260902073103 76 243 0.0 0.0 0.00 0.00 0.00 92 1016.5
20260902072603 76 243 0.0 0.0 0.00 0.00 0.00 92 1016.6
20260902072330 76 243 0.0 0.0 0.00 0.00 0.00 92 1016.6
20260902071603 76 244 0.0 0.0 0.00 0.00 0.00 92 1016.6
20260902071104 76 243 0.0 0.0 0.00 0.00 0.00 91 1016.6
20260902070603 76 243 0.0 0.0 0.00 0.00 0.00 91 1016.6
20260902065603 76 243 0.0 0.0 0.00 0.00 0.00 91 1016.6
20260902065102 76 243 0.0 0.0 0.00 0.00 0.00 90 1016.6
20260902064605 77 243 0.0 0.0 0.00 0.00 0.00 90 1016.6
20260902064104 77 243 0.0 0.0 0.00 0.00 0.00 90 1016.6
20260902063603 77 243 0.0 0.0 0.00 0.00 0.00 90 1016.6
20260902063102 77 243 0.0 0.0 0.00 0.00 0.00 90 1016.6
20260902062604 77 243 0.0 0.0 0.00 0.00 0.00 89 1016.6
20260902062103 77 243 0.0 0.0 0.00 0.00 0.00 89 1016.7
20260902061603 77 243 0.0 0.0 0.00 0.00 0.00 89 1016.7
20260902061103 77 243 0.0 0.0 0.00 0.00 0.00 88 1016.7
20260902060603 78 243 0.0 0.0 0.00 0.00 0.00 88 1016.7
20260902060104 78 243 0.0 0.0 0.00 0.00 0.00 88 1016.7
20260902055831 78 243 0.0 1.0 0.00 0.00 0.00 88 1016.8
20260902055103 78 243 0.0 1.0 0.00 0.00 0.00 88 1016.9
20260902054603 78 243 0.0 0.0 0.00 0.00 0.00 87 1016.8
20260902054103 78 243 0.0 0.0 0.00 0.00 0.00 87 1016.8
20260902053604 78 243 0.0 0.0 0.00 0.00 0.00 87 1016.8
20260902053105 77 243 0.0 0.0 0.00 0.00 0.00 88 1016.7
20260902052603 77 244 0.0 0.0 0.00 0.00 0.00 88 1016.6
20260902052103 77 243 0.0 0.0 0.00 0.00 0.00 88 1016.5
20260902051602 77 243 0.0 0.0 0.00 0.00 0.00 88 1016.5
20260902051103 77 243 0.0 0.0 0.00 0.00 0.00 87 1016.5
20260902050601 77 243 0.0 0.0 0.00 0.00 0.00 87 1016.5
20260902045601 77 243 0.0 0.0 0.00 0.00 0.00 87 1016.3
20260902045100 77 243 0.0 0.0 0.00 0.00 0.00 86 1016.3
20260902044601 78 243 0.0 0.0 0.00 0.00 0.00 86 1016.3
20260902044102 78 243 0.0 0.0 0.00 0.00 0.00 86 1016.2
20260902043824 78 243 0.0 0.0 0.00 0.00 0.00 86 1016.2
20260902043101 78 243 0.0 0.0 0.00 0.00 0.00 86 1016.2
20260902042600 78 243 0.0 0.0 0.00 0.00 0.00 86 1016.2
20260902042102 78 243 0.0 0.0 0.00 0.00 0.00 86 1016.1
20260902041601 78 243 0.0 0.0 0.00 0.00 0.00 86 1016.1
20260902041103 78 243 0.0 0.0 0.00 0.00 0.00 86 1016.1
20260902040601 78 243 0.0 0.0 0.00 0.00 0.00 85 1016.2
20260902035601 78 243 0.0 0.0 0.00 0.00 0.00 84 1016.1
20260902035103 78 243 0.0 0.0 0.00 0.00 0.00 84 1016.0
20260902034601 78 243 0.0 0.0 0.00 0.00 0.00 85 1016.2
20260902034543 79 243 0.0 0.0 0.00 0.00 0.00 84 1016.1
20260902033601 79 243 0.0 0.0 0.00 0.00 0.00 84 1016.1
20260902033333 79 243 0.0 0.0 0.00 0.00 0.00 84 1016.1
20260902032604 79 243 0.0 0.0 0.00 0.00 0.00 84 1016.0
20260902032103 79 243 0.0 0.0 0.00 0.00 0.00 83 1016.1
20260902031602 79 243 0.0 0.0 0.00 0.00 0.00 83 1016.2
20260902031103 79 243 0.0 0.0 0.00 0.00 0.00 83 1016.2
20260902030603 79 243 0.0 0.0 0.00 0.00 0.00 83 1016.1
20260902030103 79 243 0.0 0.0 0.00 0.00 0.00 83 1016.0
20260902025603 79 243 0.0 0.0 0.00 0.00 0.00 83 1015.9
20260902025314 80 243 0.0 0.0 0.00 0.00 0.00 82 1016.1
20260902025306 79 243 0.0 0.0 0.00 0.00 0.00 83 1016.1
20260902024057 80 243 0.0 0.0 0.00 0.00 0.00 82 1016.0
20260902023551 80 243 0.0 0.0 0.00 0.00 0.00 82 1015.9
20260902023051 80 243 0.0 0.0 0.00 0.00 0.00 81 1016.0
20260902022551 80 243 0.0 0.0 0.00 0.00 0.00 81 1016.0